Torna al catalogo

WESTFORD NEEDLES

AttivoPO
NORAD 628·DEBRIS·🇺🇸 United States

Lanciato May 9, 1963 da Vandenberg Space Force Base

Loading…

Prossimi Passaggi (prossime 24 ore)

TLE

AggiornatoSource: Space-Track

Epoca: Sep 14, 2026, 05:16 UTC

1 00628U 63014F   26257.21959469  .00000003  00000-0  00000-0 0  9990
2 00628  87.3545 194.9150 0025214  65.0885 295.2585  8.63375228996649

Traccia WESTFORD NEEDLES in tempo reale con AllMySat

Download on the App Store